Flag for U.S.A. Weather past 2 weeks in Norwalk, California, U.S.A.

Now
55 °F

Overcast.


Feels Like: 55 °F
Forecast: 55 / 71 °F
Wind: 3 mph from East

Location: Fullerton Municipal Airport

Current Time: Feb 27, 2015 at 5:25:38 AM

Latest Report: Feb 27, 2015 at 4:53 AM


Visibility: 10 mi

Pressure: 29.81 "Hg

Humidity: 80%

Dew point: 49 °F

Location of NorwalkLocation

Historic Weather in Norwalk — Graph

°F

Norwalk temperature yesterday

Maximum temperature yesterday: 70 °F (at 12:53 PM)
Minimum temperature yesterday: 50 °F (at 4:53 AM)
Average temperature yesterday: 60 °F

Past Weeks' High & Low Weather Summary

 TemperatureHumidityPressure
High89 °F (Feb 12, 2:53 PM)93% (Feb 23, 3:53 AM)30.23 "Hg (Feb 23, 3:53 AM)
Low45 °F (Feb 24, 5:53 AM)7% (Feb 13, 12:53 PM)29.81 "Hg (Feb 27, 3:53 AM)
Average63 °F58%30.01 "Hg
* Reported Feb 12 3:53 AM — Feb 27 3:53 AM, Norwalk, Weather by CustomWeather, © 2015

Note: Actual official high and low records may vary slightly from our data, if they occured in-between our weather recording intervals... More about our weather records

Advertising

Norwalk weather history for previous 24 hours

 ConditionsComfort  
Time TempWeatherWind HumidityBarometerVisibility
3:53 AM
Fri, Feb 27
56 °FMostly cloudy.5 mph81%29.81 "Hg10 mi
2:53 AM55 °FPassing clouds.5 mph83%29.82 "Hg10 mi
1:53 AM55 °FPassing clouds.3 mph83%29.82 "Hg10 mi
12:53 AM55 °FPassing clouds.No wind83%29.83 "Hg10 mi
11:53 PM
Thu, Feb 26
56 °FClear.No wind84%29.83 "Hg10 mi
10:53 PM58 °FClear.No wind81%29.84 "Hg10 mi
9:53 PM59 °FClear.No wind81%29.85 "Hg10 mi
8:53 PM60 °FClear.No wind78%29.84 "Hg10 mi
7:53 PM59 °FClear.5 mph81%29.85 "Hg10 mi
6:53 PM61 °FClear.5 mph75%29.85 "Hg10 mi
5:53 PM63 °FClear.6 mph60%29.83 "Hg10 mi
4:53 PM65 °FSunny.N/A54%29.83 "Hg10 mi
3:53 PM67 °FSunny.9 mph47%29.83 "Hg10 mi
2:53 PM69 °FSunny.9 mph41%29.84 "Hg10 mi
1:53 PM70 °FSunny.9 mph42%29.84 "Hg10 mi
12:53 PM70 °FSunny.8 mph44%29.86 "Hg10 mi
11:53 AM68 °FSunny.6 mph44%29.90 "Hg10 mi
10:53 AM67 °FSunny.3 mph49%29.93 "Hg10 mi
9:53 AM63 °FSunny.No wind60%29.95 "Hg8 mi
9:03 AM61 °FPartly sunny.3 mph70%29.96 "Hg8 mi
8:53 AM60 °FScattered clouds.5 mph69%29.96 "Hg7 mi
7:53 AM55 °FOvercast.5 mph77%29.96 "Hg7 mi
6:53 AM52 °FLow clouds.No wind75%29.95 "Hg10 mi
5:53 AM52 °FLow clouds.No wind75%29.94 "Hg10 mi
Weather by CustomWeather, © 2015

See weather overviewHow to use our weather pages